Flag for U.S.A. Weather past 2 weeks in Tallahassee, Florida, U.S.A.

Now
80 °F

Passing clouds.


Feels Like: 79 °F
Forecast: 62 / 78 °F
Wind: 7 mph from West

Location: Tallahassee Regional Airport

Current Time: Apr 21, 2015 at 5:52:41 PM

Latest Report: Apr 21, 2015 at 4:53 PM


Visibility: 10 mi

Pressure: 29.95 "Hg

Humidity: 31%

Dew point: 47 °F

Location of TallahasseeLocation

Historic Weather in Tallahassee — Graph

°F

Tallahassee temperature yesterday

Maximum temperature yesterday: 74 °F (at 5:53 PM)
Minimum temperature yesterday: 64 °F (at 3:53 AM)
Average temperature yesterday: 69 °F

Past Weeks' High & Low Weather Summary

 TemperatureHumidityPressure
High90 °F (Apr 8, 4:53 PM)97% (Apr 8, 3:58 AM)30.19 "Hg (Apr 8, 3:58 AM)
Low61 °F (Apr 21, 6:53 AM)32% (Apr 21, 3:53 PM)29.79 "Hg (Apr 20, 2:53 PM)
Average74 °F82%30.04 "Hg
* Reported Apr 6 3:53 PM — Apr 21 3:53 PM, Tallahassee, Weather by CustomWeather, © 2015

Note: Actual official high and low records may vary slightly from our data, if they occured in-between our weather recording intervals... More about our weather records

Advertising

Tallahassee weather history for previous 24 hours

 ConditionsComfort  
Time TempWeatherWind HumidityBarometerVisibility
3:53 PM
Tue, Apr 21
79 °FPassing clouds.No wind32%29.98 "Hg10 mi
2:53 PM78 °FPassing clouds.9 mph33%29.97 "Hg10 mi
1:53 PM76 °FPassing clouds.7 mph39%30.00 "Hg10 mi
12:53 PM74 °FPassing clouds.6 mph38%30.02 "Hg10 mi
11:53 AM71 °FPassing clouds.3 mph45%30.03 "Hg10 mi
10:53 AM69 °FScattered clouds.7 mph51%30.03 "Hg10 mi
9:53 AM68 °FPassing clouds.8 mph57%30.01 "Hg10 mi
8:53 AM64 °FSunny.8 mph70%30.00 "Hg10 mi
7:53 AM61 °FPassing clouds.5 mph81%29.98 "Hg10 mi
6:53 AM61 °FPassing clouds.5 mph83%29.96 "Hg10 mi
5:53 AM63 °FClear.3 mph81%29.94 "Hg10 mi
4:53 AM64 °FClear.7 mph81%29.92 "Hg10 mi
3:53 AM66 °FClear.6 mph93%29.90 "Hg10 mi
2:53 AM65 °FPartly cloudy.3 mph94%29.89 "Hg10 mi
2:02 AM64 °FFog.N/A97%29.90 "Hg1 mi
1:57 AM65 °FFog.N/A94%29.89 "Hg2 mi
12:53 AM64 °FFog.N/A94%29.90 "Hg3 mi
11:53 PM
Mon, Apr 20
65 °FClear.5 mph94%29.89 "Hg10 mi
10:53 PM66 °FPassing clouds.3 mph93%29.88 "Hg10 mi
9:53 PM68 °FPassing clouds.3 mph90%29.86 "Hg10 mi
8:53 PM71 °FScattered clouds.6 mph84%29.84 "Hg10 mi
7:53 PM73 °FPartly sunny.8 mph81%29.82 "Hg10 mi
6:53 PM74 °FScattered clouds.9 mph76%29.81 "Hg10 mi
5:53 PM74 °FBroken clouds.8 mph74%29.80 "Hg10 mi
Weather by CustomWeather, © 2015

See weather overviewHow to use our weather pages